Overview Statistics Trail Chart Weather Telemetry Raw packets
 

This is the latest recevied weather packets stored in our database for station/object KA6UPU-1. If no packets are shown the sender has not sent any weather packets the latest 10 day(s).

<< 82 83 84 85 86 87 88 >>
Time Temp. Humidity Pressure Rain* Wind** Luminosity Snow
1787936479 20° C 66% 1014.9 hPa 0 mm - - -
1787936179 20° C 66% 1014.7 hPa 0 mm - - -
1787935879 19.44° C 66% 1014.6 hPa 0 mm - - -
1787935579 19.44° C 66% 1014.7 hPa 0 mm - - -
1787935279 19.44° C 66% 1014.6 hPa 0 mm - - -
1787934979 19.44° C 67% 1014.6 hPa 0 mm - - -
1787934679 19.44° C 66% 1014.7 hPa 0 mm - - -
1787934379 19.44° C 66% 1014.7 hPa 0 mm - - -
1787934080 19.44° C 66% 1014.6 hPa 0 mm - - -
1787933779 19.44° C 66% 1014.4 hPa 0 mm - - -
1787932586 19.44° C 65% 1014.3 hPa 0 mm - - -
1787932287 19.44° C 64% 1014.3 hPa 0 mm - - -
1787931687 20° C 63% 1014.4 hPa 0 mm - - -
1787931386 20° C 61% 1014.4 hPa 0 mm - - -
1787930938 20.56° C 58% 1014.3 hPa 0 mm - - -
1787930634 20.56° C 57% 1014.3 hPa 0 mm - - -
1787930334 20.56° C 55% 1014.2 hPa 0 mm - - -
1787929734 21.11° C 49% 1014 hPa 0 mm - - -
1787929134 21.11° C 48% 1013.5 hPa 0 mm - - -
1787928834 21.11° C 48% 1013.3 hPa 0 mm - - -
1787928534 21.11° C 48% 1013.2 hPa 0 mm - - -
1787928234 20.56° C 49% 1013.1 hPa 0 mm - - -
1787927934 20.56° C 50% 1013 hPa 0 mm - - -
1787927634 20.56° C 51% 1012.9 hPa 0 mm - - -
1787927334 20.56° C 52% 1012.8 hPa 0 mm - - -

* Rain latest hour (hover to see other rain measurements)
** Current wind speed in m/s (hover to see current wind gust speed)